WetterOnline ( https://www.wetteronline.de )

Wetter aktuell Roth

Aktuelles Wetter: Roth (386m)

6-stündlich | Neueste Meldungen
Ortszeit Temperatur Wetter
Di, 11.05. 8:00 13.6° C leicht bewölkt
Di, 11.05. 2:00 13.9° C bedeckt
Mo, 10.05. 20:00 19.2° C bedeckt
Mo, 10.05. 14:00 27.4° C wolkenlos
Mo, 10.05. 8:00 17.1° C bewölkt
Mo, 10.05. 2:00 11.0° C wolkenlos
So, 09.05. 20:00 24.0° C wolkig
So, 09.05. 14:00 25.6° C wolkenlos
Ortszeit Temperatur Wetter
Di, 11.05. 13:00 16.5° C bedeckt
Di, 11.05. 12:50 16.5° C bedeckt
Di, 11.05. 12:40 16.3° C bedeckt
Di, 11.05. 12:30 16.3° C bedeckt
Di, 11.05. 12:20 16.3° C bedeckt
Di, 11.05. 12:10 16.4° C bedeckt
Di, 11.05. 12:00 15.9° C bedeckt
Di, 11.05. 11:30 15.6° C wolkig
Di, 11.05. 11:00 15.0° C bewölkt
Di, 11.05. 10:30 14.5° C bedeckt
Di, 11.05. 10:00 14.2° C bedeckt
Ortszeit Relative Feuchte Sichtweite
Di, 11.05. 8:00 80% 65 km
Di, 11.05. 2:00 75% >70 km
Mo, 10.05. 20:00 59% 60 km
Mo, 10.05. 14:00 30% >70 km
Mo, 10.05. 8:00 54% 55 km
Mo, 10.05. 2:00 73% 65 km
So, 09.05. 20:00 38% >70 km
So, 09.05. 14:00 30% >70 km
Ortszeit Relative Feuchte Sichtweite
Di, 11.05. 13:00 69% 45 km
Di, 11.05. 12:50 69% -
Di, 11.05. 12:40 70% -
Di, 11.05. 12:30 71% >70 km
Di, 11.05. 12:20 71% -
Di, 11.05. 12:10 70% -
Di, 11.05. 12:00 71% >70 km
Di, 11.05. 11:30 73% 60 km
Di, 11.05. 11:00 74% 60 km
Di, 11.05. 10:30 76% 65 km
Di, 11.05. 10:00 76% >70 km
Ortszeit Niederschlagsmenge Niederschlagsart
Di, 11.05. 8:00 0.0 l/m2 in 12 Std. -
Di, 11.05. 2:00 0.0 l/m2 in 6 Std. -
Mo, 10.05. 20:00 0.0 l/m2 in 12 Std. -
Mo, 10.05. 14:00 0.0 l/m2 in 6 Std. -
Mo, 10.05. 8:00 0.0 l/m2 in 12 Std. -
Mo, 10.05. 2:00 0.0 l/m2 in 6 Std. -
So, 09.05. 20:00 0.0 l/m2 in 12 Std. -
So, 09.05. 14:00 0.0 l/m2 in 6 Std. -
Ortszeit Niederschlagsmenge Niederschlagsart
Di, 11.05. 13:00 0.0 l/m2 in 1 Std. -
Di, 11.05. 12:50 keine Meldung -
Di, 11.05. 12:40 keine Meldung -
Di, 11.05. 12:30 0.0 l/m2 in 1 Std. -
Di, 11.05. 12:20 keine Meldung -
Di, 11.05. 12:10 keine Meldung -
Di, 11.05. 12:00 0.0 l/m2 in 1 Std. -
Di, 11.05. 11:30 0.0 l/m2 in 1 Std. -
Di, 11.05. 11:00 0.0 l/m2 in 1 Std. -
Di, 11.05. 10:30 0.0 l/m2 in 1 Std. -
Di, 11.05. 10:00 0.0 l/m2 in 1 Std. -
Ortszeit Stärke Spitze Richtung
km/h Bft. km/h Grad Sektor
Di, 11.05. 8:00 13 3 19 310° NW
Di, 11.05. 2:00 11 2 22 290° W
Mo, 10.05. 20:00 11 2 40 320° NW
Mo, 10.05. 14:00 14 3 29 270° W
Mo, 10.05. 8:00 9 2 17 140° SO
Mo, 10.05. 2:00 0 0 22 - -
So, 09.05. 20:00 13 3 35 110° O
So, 09.05. 14:00 22 4 36 170° S
Ortszeit Stärke Spitze Richtung
km/h Bft. km/h Grad Sektor
Di, 11.05. 13:00 4 1 14 130° SO
Di, 11.05. 12:50 4 1 - 130° SO
Di, 11.05. 12:40 4 1 - 60° NO
Di, 11.05. 12:30 7 2 14 340° N
Di, 11.05. 12:20 7 2 - 340° N
Di, 11.05. 12:10 6 1 - 310° NW
Di, 11.05. 12:00 6 1 19 280° W
Di, 11.05. 11:30 4 1 18 30° NO
Di, 11.05. 11:00 6 1 13 40° NO
Di, 11.05. 10:30 7 2 11 330° NW
Di, 11.05. 10:00 7 2 14 20° N
Ortszeit Untergrenze Bedeckung Gattung
total tief tief mittel hoch
Di, 11.05. 8:00 3900 m 4/8 4/8 - - -
Di, 11.05. 2:00 3600 m 8/8 8/8 - - -
Mo, 10.05. 20:00 4200 m 8/8 8/8 - - -
Mo, 10.05. 14:00 - 0/8 0/8 - - -
Mo, 10.05. 8:00 6900 m 7/8 6/8 - - -
Mo, 10.05. 2:00 - 0/8 0/8 - - -
So, 09.05. 20:00 7500 m 8/8 0/8 - - -
So, 09.05. 14:00 - 0/8 0/8 - - -
Ortszeit Bedeckungsgrad in Achtel und Wolkenuntergrenze
Di, 11.05. 13:00 3(3600m) 8(4800m)
Di, 11.05. 12:50 3(3600m) 8(4800m)
Di, 11.05. 12:40 2(3900m) 8(4800m)
Di, 11.05. 12:30 4(3600m) 8(4800m) 8(5400m)
Di, 11.05. 12:20 4(3600m) 8(4800m) 8(5400m)
Di, 11.05. 12:10 7(3600m) 8(4200m) 8(5100m)
Di, 11.05. 12:00 8(3900m) 8(4800m)
Di, 11.05. 11:30 1(570m) 7(3600m) 8(4200m)
Di, 11.05. 11:00 7(3600m) 7(3600m) 7(4200m)
Di, 11.05. 10:30 8(3900m)
Di, 11.05. 10:00 2(3900m) 8(5100m)
Ortszeit Luftdruck NN (hPa) Tendenz (hPa in 3 Std.)
Di, 11.05. 8:00 1007 - 0,1
Di, 11.05. 2:00 1008 - 0,8
Mo, 10.05. 20:00 1008 0,0
Mo, 10.05. 14:00 1006 0,0
Mo, 10.05. 8:00 1008 + 1,4
Mo, 10.05. 2:00 1007 - 0,3
So, 09.05. 20:00 1006 - 1,1
So, 09.05. 14:00 1009 - 2,0
Ortszeit Luftdruck NN (hPa) Tendenz (hPa in 3 Std.)
Di, 11.05. 13:00 1005 0,0
Di, 11.05. 12:50 1005 keine Meldung
Di, 11.05. 12:40 1005 keine Meldung
Di, 11.05. 12:30 1005 - 0,9
Di, 11.05. 12:20 1005 keine Meldung
Di, 11.05. 12:10 1005 keine Meldung
Di, 11.05. 12:00 1006 - 0,7
Di, 11.05. 11:30 1006 - 0,3
Di, 11.05. 11:00 1006 - 0,7
Di, 11.05. 10:30 1006 - 0,8
Di, 11.05. 10:00 1006 - 0,8
Ortszeit Schneehöhe (cm)
Di, 11.05. 8:00 0
Di, 11.05. 2:00 0
Mo, 10.05. 20:00 0
Mo, 10.05. 14:00 0
Mo, 10.05. 8:00 0
Mo, 10.05. 2:00 0
So, 09.05. 20:00 0
So, 09.05. 14:00 0
Ortszeit Schneehöhe (cm)
Di, 11.05. 13:00 0
Di, 11.05. 12:50 0
Di, 11.05. 12:40 0
Di, 11.05. 12:30 0
Di, 11.05. 12:20 0
Di, 11.05. 12:10 0
Di, 11.05. 12:00 0
Di, 11.05. 11:30 0
Di, 11.05. 11:00 0
Di, 11.05. 10:30 0
Di, 11.05. 10:00 0
Link zu dieser Seite / Seite empfehlen

Das Wetter in ...